Tracking 31027 objects as of 19-Jul-2025
HD Live streaming from Space Station
objects crossing your sky now

STARLINK-1640

Track STARLINK-1640 now!
10-day predictions
STARLINK-1640 is classified as:


NORAD ID: 46173
Int'l Code: 2020-057BJ
Perigee: 553.6 km
Apogee: 555.2 km
Inclination: 53.1 °
Period: 95.6 minutes
Semi major axis: 6925 km
RCS: Unknown
Launch date: August 18, 2020
Source: United States (US)
Launch site: AIR FORCE EASTERN TEST RANGE (AFETR)
Your satellite tracking list
Your tracking list is empty




NASA's NSSDC Master Catalog

Two Line Element Set (TLE):
1 46173U 20057BJ  25199.49576194 -.00000367  00000-0 -57822-5 0  9993
2 46173  53.0552 287.9568 0001186  91.0092 269.1033 15.06392143270765
Source of the keplerian elements: AFSPC